Darstellungsparameter: Aktuell verwendete Einstellungen:
Skalierung der Graphiken ... ?
xyx+y,   Skalierungsfaktor:      Skalierung: Modus: x, Faktor: 1
Darstellungszeitraum ... ?
Vom - - bis: - -   Zeitraum: 29.06.2022 - 30.06.2022
Min/Max/Avg-Anzeige ... ?
Zeige MMA aktuell
Zeige MMA Monat
Zeige MMA alles
Zeige --A aktuell
Zeige --A Monat
Zeige --A alles
Keine MMA-Anzeige
MMA:
Keine MMA-Graphiken
MMA-Basis: 29.06.2022 - 30.06.2022
Quicknavigation für Darstellung... ?
Tage:      1T, 2T, 3T, 5T -1T -2T -3T -5T +1T +2T +3T +5T
Wochen: 1W, 2W, 3W -1W -2W -3W +1W +2W +3W
Monate: 1M, 3M, 6M -1M -3M -6M +1M +3M +6M
Jahre:    1J, 3J, 5J, 10J -1J -3J -5J -10J +1J +3J +5J +10J
Nutze für die Darstellung ... ?
Originaldaten oder Mittelwerte auf ...
Stundenbasis Tagesbasis Wochenbasis
Monatsbasis Jahresbasis      Datenbasis: Original-Daten
Darstellen als:
Statistik (Auto) Statistik J:M      Darstellung:
Zur Graphik,    zurück zur Übersicht aller Sensoren.
 
Tabellarische Datenbersicht: ?
 
Sensor: Nr:Datum:Temp:Abs-Feuchte:Windchill:Wind:
Aussen-T/F 1 29-06-2022 00:00:00 16.7 C 11.51 g/m*3 16.7 C 0 km/h
2 29-06-2022 00:05:00 16.7 C 11.65 g/m*3 16.7 C 0 km/h
3 29-06-2022 00:10:00 16.6 C 11.44 g/m*3 16.6 C 0 km/h
4 29-06-2022 00:15:00 16.6 C 11.58 g/m*3 16.6 C 0 km/h
5 29-06-2022 00:20:00 16.5 C 11.51 g/m*3 16.5 C 0 km/h
6 29-06-2022 00:25:00 16.4 C 11.45 g/m*3 16.4 C 0 km/h
7 29-06-2022 00:30:00 16.4 C 11.45 g/m*3 16.4 C 0 km/h
8 29-06-2022 00:35:00 16.4 C 11.58 g/m*3 16.4 C 0 km/h
9 29-06-2022 00:40:00 16.5 C 11.65 g/m*3 16.5 C 0 km/h
10 29-06-2022 00:45:00 16.5 C 11.65 g/m*3 16.5 C 0 km/h
11 29-06-2022 00:50:00 16.6 C 11.72 g/m*3 16.6 C 0 km/h
12 29-06-2022 00:55:00 16.6 C 11.72 g/m*3 16.6 C 0 km/h
13 29-06-2022 01:00:00 16.6 C 11.87 g/m*3 16.6 C 0 km/h
14 29-06-2022 01:05:00 16.6 C 11.72 g/m*3 16.6 C 0 km/h
15 29-06-2022 01:10:00 16.6 C 11.72 g/m*3 16.6 C 0 km/h
16 29-06-2022 01:15:00 16.5 C 11.65 g/m*3 16.5 C 0 km/h
17 29-06-2022 01:20:00 16.5 C 11.65 g/m*3 16.5 C 0 km/h
18 29-06-2022 01:25:00 16.4 C 11.58 g/m*3 16.4 C 0 km/h
19 29-06-2022 01:30:00 16.4 C 11.58 g/m*3 16.4 C 0 km/h
20 29-06-2022 01:35:00 16.3 C 11.65 g/m*3 16.3 C 0 km/h
21 29-06-2022 01:40:00 16.3 C 11.52 g/m*3 16.3 C 0 km/h
22 29-06-2022 01:45:00 16.2 C 11.58 g/m*3 16.2 C 0 km/h
23 29-06-2022 01:50:00 16.2 C 11.45 g/m*3 16.2 C 0 km/h
24 29-06-2022 01:55:00 16.1 C 11.38 g/m*3 16.1 C 0 km/h
25 29-06-2022 02:00:00 15.9 C 11.24 g/m*3 15.9 C 0 km/h
Sensor: Nr:Datum:Temp:Abs-Feuchte:Windchill:Wind:
Aussen-T/F 26 29-06-2022 02:05:00 15.8 C 11.17 g/m*3 15.8 C 0 km/h
27 29-06-2022 02:10:00 15.8 C 11.31 g/m*3 15.8 C 0 km/h
28 29-06-2022 02:15:00 15.6 C 11.04 g/m*3 15.6 C 0 km/h
29 29-06-2022 02:20:00 15.6 C 11.04 g/m*3 15.6 C 0 km/h
30 29-06-2022 02:25:00 15.4 C 10.9 g/m*3 15.4 C 0 km/h
31 29-06-2022 02:30:00 15.4 C 11.04 g/m*3 15.4 C 0 km/h
32 29-06-2022 02:35:00 15.4 C 11.04 g/m*3 15.4 C 0 km/h
33 29-06-2022 02:40:00 15.3 C 11.1 g/m*3 15.3 C 0 km/h
34 29-06-2022 02:45:00 15.3 C 11.1 g/m*3 15.3 C 0 km/h
35 29-06-2022 02:50:00 15.3 C 11.1 g/m*3 15.3 C 0 km/h
36 29-06-2022 02:55:00 15.2 C 11.03 g/m*3 15.2 C 0 km/h
37 29-06-2022 03:00:00 15.2 C 11.03 g/m*3 15.2 C 0 km/h
38 29-06-2022 03:05:00 15.2 C 11.03 g/m*3 15.2 C 0 km/h
39 29-06-2022 03:10:00 15.2 C 11.03 g/m*3 15.2 C 0 km/h
40 29-06-2022 03:15:00 15.2 C 11.16 g/m*3 15.2 C 0 km/h
41 29-06-2022 03:20:00 15.2 C 11.16 g/m*3 15.2 C 0 km/h
42 29-06-2022 03:25:00 15.2 C 11.16 g/m*3 15.2 C 0 km/h
43 29-06-2022 03:30:00 15.2 C 11.16 g/m*3 15.2 C 0 km/h
44 29-06-2022 03:35:00 15.2 C 11.16 g/m*3 15.2 C 0 km/h
45 29-06-2022 03:40:00 15.2 C 11.16 g/m*3 15.2 C 0 km/h
46 29-06-2022 03:45:00 15.3 C 11.36 g/m*3 15.3 C 0 km/h
47 29-06-2022 03:50:00 15.4 C 11.43 g/m*3 15.4 C 0 km/h
48 29-06-2022 03:55:00 15.4 C 11.43 g/m*3 15.4 C 0 km/h
49 29-06-2022 04:00:00 15.5 C 11.5 g/m*3 15.5 C 0 km/h
50 29-06-2022 04:05:00 15.6 C 11.57 g/m*3 15.6 C 0 km/h
Sensor: Nr:Datum:Temp:Abs-Feuchte:Windchill:Wind:
Aussen-T/F 51 29-06-2022 04:10:00 15.6 C 11.57 g/m*3 15.6 C 0 km/h
52 29-06-2022 04:15:00 15.7 C 11.64 g/m*3 15.7 C 0 km/h
53 29-06-2022 04:20:00 15.7 C 11.64 g/m*3 15.7 C 0 km/h
54 29-06-2022 04:25:00 15.8 C 11.71 g/m*3 15.8 C 0 km/h
55 29-06-2022 04:30:00 15.8 C 11.71 g/m*3 15.8 C 0 km/h
56 29-06-2022 04:35:00 15.9 C 11.78 g/m*3 15.9 C 0 km/h
57 29-06-2022 04:40:00 15.9 C 11.92 g/m*3 15.9 C 0 km/h
58 29-06-2022 04:45:00 15.9 C 11.92 g/m*3 15.9 C 0 km/h
59 29-06-2022 04:50:00 15.9 C 11.78 g/m*3 15.9 C 0 km/h
60 29-06-2022 04:55:00 15.9 C 11.78 g/m*3 15.9 C 0 km/h
61 29-06-2022 05:00:00 15.9 C 11.78 g/m*3 15.9 C 0 km/h
62 29-06-2022 05:05:00 15.9 C 11.92 g/m*3 15.9 C 0 km/h
63 29-06-2022 05:10:00 15.9 C 11.78 g/m*3 15.9 C 0 km/h
64 29-06-2022 05:15:00 16 C 11.85 g/m*3 16 C 0 km/h
65 29-06-2022 05:20:00 16.1 C 11.93 g/m*3 16.1 C 0 km/h
66 29-06-2022 05:25:00 16.1 C 11.93 g/m*3 16.1 C 0 km/h
67 29-06-2022 05:30:00 16.1 C 11.93 g/m*3 16.1 C 0 km/h
68 29-06-2022 05:35:00 16.1 C 11.93 g/m*3 16.1 C 0 km/h
69 29-06-2022 05:40:00 16.1 C 11.93 g/m*3 16.1 C 0 km/h
70 29-06-2022 05:45:00 16.1 C 11.93 g/m*3 16.1 C 0 km/h
71 29-06-2022 05:50:00 16.1 C 11.93 g/m*3 16.1 C 0 km/h
72 29-06-2022 05:55:00 16.1 C 11.93 g/m*3 16.1 C 0 km/h
73 29-06-2022 06:00:00 16.1 C 11.93 g/m*3 16.1 C 0 km/h
74 29-06-2022 06:05:00 16.1 C 11.93 g/m*3 16.1 C 0 km/h
75 29-06-2022 06:10:00 16.1 C 11.93 g/m*3 16.1 C 0 km/h
Sensor: Nr:Datum:Temp:Abs-Feuchte:Windchill:Wind:
Aussen-T/F 76 29-06-2022 06:15:00 16.1 C 11.93 g/m*3 16.1 C 0 km/h
77 29-06-2022 06:20:00 16.1 C 11.93 g/m*3 16.1 C 0 km/h
78 29-06-2022 06:25:00 16.1 C 11.93 g/m*3 16.1 C 0 km/h
79 29-06-2022 06:30:00 16.1 C 11.93 g/m*3 16.1 C 0 km/h
80 29-06-2022 06:35:00 16.1 C 11.93 g/m*3 16.1 C 0 km/h
81 29-06-2022 06:40:00 16.1 C 11.93 g/m*3 16.1 C 0 km/h
82 29-06-2022 06:45:00 16.1 C 11.93 g/m*3 16.1 C 0 km/h
83 29-06-2022 06:50:00 16.1 C 11.79 g/m*3 16.1 C 0 km/h
84 29-06-2022 06:55:00 16.1 C 11.93 g/m*3 16.1 C 0 km/h
85 29-06-2022 07:00:00 16.2 C 12 g/m*3 16.2 C 0 km/h
86 29-06-2022 07:05:00 16.2 C 12 g/m*3 16.2 C 0 km/h
87 29-06-2022 07:10:00 16.3 C 12.07 g/m*3 16.3 C 0 km/h
88 29-06-2022 07:15:00 16.3 C 12.21 g/m*3 16.3 C 0 km/h
89 29-06-2022 07:20:00 16.4 C 12.28 g/m*3 16.4 C 0 km/h
90 29-06-2022 07:25:00 16.4 C 12.28 g/m*3 16.4 C 0 km/h
91 29-06-2022 07:30:00 16.4 C 12.14 g/m*3 16.4 C 0 km/h
92 29-06-2022 07:35:00 16.5 C 12.22 g/m*3 16.5 C 0 km/h
93 29-06-2022 07:40:00 16.6 C 12.43 g/m*3 16.6 C 0 km/h
94 29-06-2022 07:45:00 16.7 C 12.51 g/m*3 16.7 C 0 km/h
95 29-06-2022 07:50:00 16.8 C 12.58 g/m*3 16.8 C 0 km/h
96 29-06-2022 07:55:00 16.8 C 12.44 g/m*3 16.8 C 0 km/h
97 29-06-2022 08:00:00 16.9 C 12.51 g/m*3 16.9 C 0 km/h
98 29-06-2022 08:05:00 17 C 12.59 g/m*3 17 C 0 km/h
99 29-06-2022 08:10:00 17.2 C 12.74 g/m*3 17.2 C 0 km/h
100 29-06-2022 08:15:00 17.2 C 12.59 g/m*3 17.2 C 0 km/h
Sensor: Nr:Datum:Temp:Abs-Feuchte:Windchill:Wind:
Aussen-T/F 101 29-06-2022 08:20:00 17.3 C 12.67 g/m*3 17.3 C 0 km/h
102 29-06-2022 08:25:00 17.4 C 12.6 g/m*3 17.4 C 0 km/h
103 29-06-2022 08:30:00 17.5 C 12.52 g/m*3 17.5 C 0 km/h
104 29-06-2022 08:35:00 17.7 C 12.67 g/m*3 17.7 C 0 km/h
105 29-06-2022 08:40:00 17.8 C 12.75 g/m*3 17.8 C 0 km/h
106 29-06-2022 08:45:00 17.9 C 12.67 g/m*3 17.9 C 0 km/h
107 29-06-2022 08:50:00 18.1 C 12.82 g/m*3 18.1 C 0 km/h
108 29-06-2022 08:55:00 18.1 C 12.67 g/m*3 18.1 C 0 km/h
109 29-06-2022 09:00:00 18.2 C 12.59 g/m*3 18.2 C 0 km/h
110 29-06-2022 09:05:00 18.3 C 12.82 g/m*3 18.3 C 0 km/h
111 29-06-2022 09:10:00 18.3 C 12.66 g/m*3 18.3 C 0 km/h
112 29-06-2022 09:15:00 18.4 C 12.58 g/m*3 18.4 C 1.6 km/h
113 29-06-2022 09:20:00 18.5 C 12.66 g/m*3 18.5 C 0 km/h
114 29-06-2022 09:25:00 18.6 C 12.57 g/m*3 18.6 C 0 km/h
115 29-06-2022 09:30:00 18.6 C 12.57 g/m*3 18.6 C 0 km/h
116 29-06-2022 09:35:00 18.7 C 12.81 g/m*3 18.7 C 0 km/h
117 29-06-2022 09:40:00 18.7 C 12.81 g/m*3 18.7 C 0 km/h
118 29-06-2022 09:45:00 18.8 C 13.05 g/m*3 18.8 C 0 km/h
119 29-06-2022 09:50:00 18.8 C 12.88 g/m*3 18.8 C 0 km/h
120 29-06-2022 09:55:00 18.8 C 12.88 g/m*3 18.8 C 0 km/h
121 29-06-2022 10:00:00 18.8 C 12.72 g/m*3 18.8 C 0 km/h
122 29-06-2022 10:05:00 18.8 C 12.88 g/m*3 18.8 C 0 km/h
123 29-06-2022 10:10:00 18.8 C 13.05 g/m*3 18.8 C 0 km/h
124 29-06-2022 10:15:00 18.9 C 13.12 g/m*3 18.9 C 0 km/h
125 29-06-2022 10:20:00 18.9 C 12.96 g/m*3 18.9 C 0 km/h
Sensor: Nr:Datum:Temp:Abs-Feuchte:Windchill:Wind:
Aussen-T/F 126 29-06-2022 10:25:00 18.9 C 12.96 g/m*3 18.9 C 1.6 km/h
127 29-06-2022 10:30:00 18.9 C 12.96 g/m*3 18.9 C 4.8 km/h
128 29-06-2022 10:35:00 18.9 C 12.96 g/m*3 18.9 C 4.8 km/h
129 29-06-2022 10:40:00 18.9 C 12.8 g/m*3 18.9 C 0 km/h
130 29-06-2022 10:45:00 18.9 C 12.96 g/m*3 18.9 C 0 km/h
131 29-06-2022 10:50:00 19.1 C 13.28 g/m*3 19.1 C 0 km/h
132 29-06-2022 10:55:00 19.1 C 13.44 g/m*3 19.1 C 0 km/h
133 29-06-2022 11:00:00 19.3 C 13.77 g/m*3 19.3 C 0 km/h
134 29-06-2022 11:05:00 19.3 C 13.77 g/m*3 19.3 C 0 km/h
135 29-06-2022 11:10:00 19.4 C 13.18 g/m*3 19.4 C 0 km/h
136 29-06-2022 11:15:00 19.4 C 13.35 g/m*3 19.4 C 0 km/h
137 29-06-2022 11:20:00 19.5 C 12.92 g/m*3 19.5 C 1.6 km/h
138 29-06-2022 11:25:00 19.6 C 12.83 g/m*3 19.6 C 1.6 km/h
139 29-06-2022 11:30:00 19.6 C 12.49 g/m*3 19.6 C 0 km/h
140 29-06-2022 11:35:00 19.7 C 12.57 g/m*3 19.7 C 0 km/h
141 29-06-2022 11:40:00 19.7 C 12.23 g/m*3 19.7 C 1.6 km/h
142 29-06-2022 11:45:00 19.7 C 12.57 g/m*3 19.7 C 0 km/h
143 29-06-2022 11:50:00 19.9 C 13.57 g/m*3 19.9 C 0 km/h
144 29-06-2022 11:55:00 19.9 C 13.74 g/m*3 19.9 C 0 km/h
145 29-06-2022 12:00:00 20.1 C 14.08 g/m*3 20.1 C 0 km/h
146 29-06-2022 12:05:00 20.1 C 14.25 g/m*3 20.1 C 0 km/h
147 29-06-2022 12:10:00 20.1 C 14.25 g/m*3 20.1 C 0 km/h
148 29-06-2022 12:15:00 20 C 14.17 g/m*3 20 C 0 km/h
149 29-06-2022 12:20:00 19.9 C 14.26 g/m*3 19.9 C 0 km/h
150 29-06-2022 12:25:00 19.9 C 14.43 g/m*3 19.9 C 0 km/h
Sensor: Nr:Datum:Temp:Abs-Feuchte:Windchill:Wind:
Aussen-T/F 151 29-06-2022 12:30:00 19.8 C 14.35 g/m*3 19.8 C 0 km/h
152 29-06-2022 12:35:00 19.8 C 14.18 g/m*3 19.8 C 0 km/h
153 29-06-2022 12:40:00 19.7 C 14.09 g/m*3 19.7 C 0 km/h
154 29-06-2022 12:45:00 19.8 C 14.18 g/m*3 19.8 C 0 km/h
155 29-06-2022 12:50:00 19.7 C 13.25 g/m*3 19.7 C 0 km/h
156 29-06-2022 12:55:00 19.7 C 12.91 g/m*3 19.7 C 0 km/h
157 29-06-2022 13:00:00 19.8 C 13.32 g/m*3 19.8 C 1.6 km/h
158 29-06-2022 13:05:00 19.9 C 12.89 g/m*3 19.9 C 3.2 km/h
159 29-06-2022 13:10:00 20.1 C 12.69 g/m*3 20.1 C 1.6 km/h
160 29-06-2022 13:15:00 20.2 C 12.76 g/m*3 20.2 C 0 km/h
161 29-06-2022 13:20:00 20.3 C 12.66 g/m*3 20.3 C 0 km/h
162 29-06-2022 13:25:00 20.4 C 12.38 g/m*3 20.4 C 6.4 km/h
163 29-06-2022 13:30:00 20.7 C 12.96 g/m*3 20.7 C 3.2 km/h
164 29-06-2022 13:35:00 21 C 13.37 g/m*3 21 C 1.6 km/h
165 29-06-2022 13:40:00 21.3 C 13.23 g/m*3 21.3 C 3.2 km/h
166 29-06-2022 13:45:00 21.6 C 13.47 g/m*3 21.6 C 3.2 km/h
167 29-06-2022 13:50:00 21.9 C 13.7 g/m*3 21.9 C 0 km/h
168 29-06-2022 13:55:00 22.3 C 13.62 g/m*3 22.3 C 6.4 km/h
169 29-06-2022 14:00:00 22.6 C 13.06 g/m*3 22.6 C 6.4 km/h
170 29-06-2022 14:05:00 22.8 C 13.41 g/m*3 22.8 C 4.8 km/h
171 29-06-2022 14:10:00 23.1 C 13.44 g/m*3 23.1 C 9.7 km/h
172 29-06-2022 14:15:00 23.2 C 13.31 g/m*3 23.2 C 6.4 km/h
173 29-06-2022 14:20:00 23.3 C 13.17 g/m*3 23.3 C 6.4 km/h
174 29-06-2022 14:25:00 23.5 C 13.75 g/m*3 23.5 C 4.8 km/h
175 29-06-2022 14:30:00 23.8 C 13.55 g/m*3 23.8 C 4.8 km/h
Sensor: Nr:Datum:Temp:Abs-Feuchte:Windchill:Wind:
Aussen-T/F 176 29-06-2022 14:35:00 23.9 C 13.2 g/m*3 23.9 C 8.1 km/h
177 29-06-2022 14:40:00 24.3 C 13.72 g/m*3 24.3 C 4.8 km/h
178 29-06-2022 14:45:00 24.6 C 13.28 g/m*3 24.6 C 4.8 km/h
179 29-06-2022 14:50:00 24.9 C 13.28 g/m*3 24.9 C 8.1 km/h
180 29-06-2022 14:55:00 25.1 C 13.43 g/m*3 25.1 C 6.4 km/h
181 29-06-2022 15:00:00 25.3 C 12.88 g/m*3 25.3 C 9.7 km/h
182 29-06-2022 15:05:00 25.3 C 13.34 g/m*3 25.3 C 4.8 km/h
183 29-06-2022 15:10:00 25.6 C 13.09 g/m*3 25.6 C 4.8 km/h
184 29-06-2022 15:15:00 25.8 C 13.72 g/m*3 25.8 C 1.6 km/h
185 29-06-2022 15:20:00 26.1 C 12.98 g/m*3 26.1 C 6.4 km/h
186 29-06-2022 15:25:00 26.4 C 13.44 g/m*3 26.4 C 6.4 km/h
187 29-06-2022 15:30:00 26.7 C 13.67 g/m*3 26.7 C 4.8 km/h
188 29-06-2022 15:35:00 27 C 13.64 g/m*3 27 C 6.4 km/h
189 29-06-2022 15:40:00 27.2 C 12.75 g/m*3 27.2 C 4.8 km/h
190 29-06-2022 15:45:00 27.2 C 13.27 g/m*3 27.2 C 4.8 km/h
191 29-06-2022 15:50:00 27.4 C 13.16 g/m*3 27.4 C 4.8 km/h
192 29-06-2022 15:55:00 27.7 C 13.64 g/m*3 27.7 C 1.6 km/h
193 29-06-2022 16:00:00 27.8 C 13.45 g/m*3 27.8 C 1.6 km/h
194 29-06-2022 16:05:00 28.1 C 13.67 g/m*3 28.1 C 0 km/h
195 29-06-2022 16:10:00 28.3 C 13.82 g/m*3 28.3 C 4.8 km/h
196 29-06-2022 16:15:00 28.2 C 13.75 g/m*3 28.2 C 4.8 km/h
197 29-06-2022 16:20:00 28.3 C 12.99 g/m*3 28.3 C 4.8 km/h
198 29-06-2022 16:25:00 28.5 C 13.42 g/m*3 28.5 C 3.2 km/h
199 29-06-2022 16:30:00 28.6 C 13.21 g/m*3 28.6 C 3.2 km/h
200 29-06-2022 16:35:00 28.6 C 13.49 g/m*3 28.6 C 4.8 km/h
Sensor: Nr:Datum:Temp:Abs-Feuchte:Windchill:Wind:
Aussen-T/F 201 29-06-2022 16:40:00 28.6 C 13.21 g/m*3 28.6 C 6.4 km/h
202 29-06-2022 16:45:00 28.6 C 13.21 g/m*3 28.6 C 4.8 km/h
203 29-06-2022 16:50:00 28.6 C 13.49 g/m*3 28.6 C 1.6 km/h
204 29-06-2022 16:55:00 28.4 C 14.73 g/m*3 28.4 C 0 km/h
205 29-06-2022 17:00:00 28.3 C 16.03 g/m*3 28.3 C 0 km/h
206 29-06-2022 17:05:00 28.1 C 16.68 g/m*3 28.1 C 3.2 km/h
207 29-06-2022 17:10:00 27.6 C 16.23 g/m*3 27.6 C 1.6 km/h
208 29-06-2022 17:15:00 27.2 C 16.39 g/m*3 27.2 C 0 km/h
209 29-06-2022 17:20:00 26.9 C 16.64 g/m*3 26.9 C 0 km/h
210 29-06-2022 17:25:00 26.7 C 16.45 g/m*3 26.7 C 0 km/h
211 29-06-2022 17:30:00 26.6 C 16.61 g/m*3 26.6 C 0 km/h
212 29-06-2022 17:35:00 26.7 C 16.96 g/m*3 26.7 C 1.6 km/h
213 29-06-2022 17:40:00 27.1 C 13.2 g/m*3 27.1 C 3.2 km/h
214 29-06-2022 17:45:00 27.5 C 12.96 g/m*3 27.5 C 6.4 km/h
215 29-06-2022 17:50:00 27.8 C 13.18 g/m*3 27.8 C 4.8 km/h
216 29-06-2022 17:55:00 28.3 C 13.55 g/m*3 28.3 C 4.8 km/h
217 29-06-2022 18:00:00 28.6 C 13.49 g/m*3 28.6 C 3.2 km/h
218 29-06-2022 18:05:00 28.7 C 16.39 g/m*3 28.7 C 3.2 km/h
219 29-06-2022 18:10:00 28.6 C 13.77 g/m*3 28.6 C 6.4 km/h
220 29-06-2022 18:15:00 28.4 C 13.9 g/m*3 28.4 C 6.4 km/h
221 29-06-2022 18:20:00 28.2 C 13.75 g/m*3 28.2 C 6.4 km/h
222 29-06-2022 18:25:00 28.1 C 14.49 g/m*3 28.1 C 4.8 km/h
223 29-06-2022 18:30:00 28.1 C 14.49 g/m*3 28.1 C 4.8 km/h
224 29-06-2022 18:35:00 28.1 C 13.95 g/m*3 28.1 C 3.2 km/h
225 29-06-2022 18:40:00 28.1 C 13.4 g/m*3 28.1 C 4.8 km/h
Sensor: Nr:Datum:Temp:Abs-Feuchte:Windchill:Wind:
Aussen-T/F 226 29-06-2022 18:45:00 28.2 C 13.47 g/m*3 28.2 C 4.8 km/h
227 29-06-2022 18:50:00 28 C 13.6 g/m*3 28 C 6.4 km/h
228 29-06-2022 18:55:00 27.8 C 13.18 g/m*3 27.8 C 6.4 km/h
229 29-06-2022 19:00:00 27.8 C 13.45 g/m*3 27.8 C 6.4 km/h
230 29-06-2022 19:05:00 27.7 C 13.11 g/m*3 27.7 C 6.4 km/h
231 29-06-2022 19:10:00 27.7 C 13.91 g/m*3 27.7 C 4.8 km/h
232 29-06-2022 19:15:00 27.8 C 13.99 g/m*3 27.8 C 8.1 km/h
233 29-06-2022 19:20:00 27.8 C 13.45 g/m*3 27.8 C 4.8 km/h
234 29-06-2022 19:25:00 27.8 C 13.45 g/m*3 27.8 C 3.2 km/h
235 29-06-2022 19:30:00 27.7 C 13.37 g/m*3 27.7 C 3.2 km/h
236 29-06-2022 19:35:00 27.8 C 14.26 g/m*3 27.8 C 3.2 km/h
237 29-06-2022 19:40:00 27.8 C 13.99 g/m*3 27.8 C 3.2 km/h
238 29-06-2022 19:45:00 27.8 C 13.72 g/m*3 27.8 C 6.4 km/h
239 29-06-2022 19:50:00 27.7 C 13.64 g/m*3 27.7 C 4.8 km/h
240 29-06-2022 19:55:00 27.7 C 13.37 g/m*3 27.7 C 4.8 km/h
241 29-06-2022 20:00:00 27.5 C 13.76 g/m*3 27.5 C 4.8 km/h
242 29-06-2022 20:05:00 27.4 C 15.79 g/m*3 27.4 C 4.8 km/h
243 29-06-2022 20:10:00 27.3 C 15.96 g/m*3 27.3 C 1.6 km/h
244 29-06-2022 20:15:00 27.2 C 15.61 g/m*3 27.2 C 0 km/h
245 29-06-2022 20:20:00 26.9 C 15.87 g/m*3 26.9 C 0 km/h
246 29-06-2022 20:25:00 26.7 C 15.95 g/m*3 26.7 C 1.6 km/h
247 29-06-2022 20:30:00 26.5 C 16.02 g/m*3 26.5 C 1.6 km/h
248 29-06-2022 20:35:00 26.3 C 15.84 g/m*3 26.3 C 0 km/h
249 29-06-2022 20:40:00 26.1 C 15.91 g/m*3 26.1 C 0 km/h
250 29-06-2022 20:45:00 25.8 C 15.89 g/m*3 25.8 C 1.6 km/h
Sensor: Nr:Datum:Temp:Abs-Feuchte:Windchill:Wind:
Aussen-T/F 251 29-06-2022 20:50:00 25.6 C 15.71 g/m*3 25.6 C 0 km/h
252 29-06-2022 20:55:00 25.3 C 15.45 g/m*3 25.3 C 0 km/h
253 29-06-2022 21:00:00 25 C 15.19 g/m*3 25 C 1.6 km/h
254 29-06-2022 21:05:00 24.8 C 15.25 g/m*3 24.8 C 1.6 km/h
255 29-06-2022 21:10:00 24.5 C 15.44 g/m*3 24.5 C 0 km/h
256 29-06-2022 21:15:00 24.2 C 15.18 g/m*3 24.2 C 1.6 km/h
257 29-06-2022 21:20:00 23.9 C 15.14 g/m*3 23.9 C 1.6 km/h
258 29-06-2022 21:25:00 23.5 C 15.23 g/m*3 23.5 C 0 km/h
259 29-06-2022 21:30:00 23.1 C 15.09 g/m*3 23.1 C 0 km/h
260 29-06-2022 21:35:00 22.7 C 14.95 g/m*3 22.7 C 0 km/h
261 29-06-2022 21:40:00 22.3 C 14.61 g/m*3 22.3 C 0 km/h
262 29-06-2022 21:45:00 22 C 14.56 g/m*3 22 C 0 km/h
263 29-06-2022 21:50:00 21.7 C 14.5 g/m*3 21.7 C 0 km/h
264 29-06-2022 21:55:00 21.3 C 14.35 g/m*3 21.3 C 0 km/h
265 29-06-2022 22:00:00 21 C 14.11 g/m*3 21 C 0 km/h
266 29-06-2022 22:05:00 20.8 C 14.12 g/m*3 20.8 C 0 km/h
267 29-06-2022 22:10:00 20.6 C 14.14 g/m*3 20.6 C 0 km/h
268 29-06-2022 22:15:00 20.3 C 14.07 g/m*3 20.3 C 0 km/h
269 29-06-2022 22:20:00 20.1 C 13.91 g/m*3 20.1 C 0 km/h
270 29-06-2022 22:25:00 19.9 C 13.92 g/m*3 19.9 C 0 km/h
271 29-06-2022 22:30:00 19.9 C 13.92 g/m*3 19.9 C 0 km/h
272 29-06-2022 22:35:00 19.7 C 13.75 g/m*3 19.7 C 0 km/h
273 29-06-2022 22:40:00 19.6 C 13.84 g/m*3 19.6 C 0 km/h
274 29-06-2022 22:45:00 19.4 C 13.68 g/m*3 19.4 C 0 km/h
275 29-06-2022 22:50:00 19.3 C 13.6 g/m*3 19.3 C 0 km/h
Sensor: Nr:Datum:Temp:Abs-Feuchte:Windchill:Wind:
Aussen-T/F 276 29-06-2022 22:55:00 19.2 C 13.69 g/m*3 19.2 C 0 km/h
277 29-06-2022 23:00:00 19.1 C 13.61 g/m*3 19.1 C 0 km/h
278 29-06-2022 23:05:00 18.9 C 13.61 g/m*3 18.9 C 0 km/h
279 29-06-2022 23:10:00 18.8 C 13.53 g/m*3 18.8 C 0 km/h
280 29-06-2022 23:15:00 18.7 C 13.45 g/m*3 18.7 C 0 km/h
281 29-06-2022 23:20:00 18.6 C 13.37 g/m*3 18.6 C 0 km/h
282 29-06-2022 23:25:00 18.5 C 13.29 g/m*3 18.5 C 0 km/h
283 29-06-2022 23:30:00 18.4 C 13.21 g/m*3 18.4 C 0 km/h
284 29-06-2022 23:35:00 18.3 C 13.29 g/m*3 18.3 C 0 km/h
285 29-06-2022 23:40:00 18.2 C 13.21 g/m*3 18.2 C 0 km/h
286 29-06-2022 23:45:00 18.1 C 13.13 g/m*3 18.1 C 0 km/h
287 29-06-2022 23:50:00 18.1 C 13.29 g/m*3 18.1 C 0 km/h
288 29-06-2022 23:55:00 18 C 13.21 g/m*3 18 C 0 km/h
289 30-06-2022 00:00:00 17.9 C 13.13 g/m*3 17.9 C 0 km/h
290 30-06-2022 00:05:00 17.8 C 13.05 g/m*3 17.8 C 0 km/h
291 30-06-2022 00:10:00 17.8 C 13.05 g/m*3 17.8 C 0 km/h
292 30-06-2022 00:15:00 17.7 C 12.98 g/m*3 17.7 C 0 km/h
293 30-06-2022 00:20:00 17.7 C 13.13 g/m*3 17.7 C 0 km/h
294 30-06-2022 00:25:00 17.6 C 13.05 g/m*3 17.6 C 0 km/h
295 30-06-2022 00:30:00 17.5 C 12.97 g/m*3 17.5 C 0 km/h
296 30-06-2022 00:35:00 17.4 C 12.89 g/m*3 17.4 C 0 km/h
297 30-06-2022 00:40:00 17.4 C 13.04 g/m*3 17.4 C 0 km/h
298 30-06-2022 00:45:00 17.3 C 12.96 g/m*3 17.3 C 0 km/h
299 30-06-2022 00:50:00 17.2 C 12.89 g/m*3 17.2 C 0 km/h
300 30-06-2022 00:55:00 17.1 C 12.81 g/m*3 17.1 C 0 km/h
Sensor: Nr:Datum:Temp:Abs-Feuchte:Windchill:Wind:
Aussen-T/F 301 30-06-2022 01:00:00 17.1 C 12.96 g/m*3 17.1 C 0 km/h
302 30-06-2022 01:05:00 16.9 C 12.8 g/m*3 16.9 C 0 km/h
303 30-06-2022 01:10:00 16.9 C 12.8 g/m*3 16.9 C 0 km/h
304 30-06-2022 01:15:00 16.8 C 12.72 g/m*3 16.8 C 0 km/h
305 30-06-2022 01:20:00 16.8 C 12.72 g/m*3 16.8 C 0 km/h
306 30-06-2022 01:25:00 16.8 C 12.87 g/m*3 16.8 C 0 km/h
307 30-06-2022 01:30:00 16.7 C 12.79 g/m*3 16.7 C 0 km/h
308 30-06-2022 01:35:00 16.7 C 12.79 g/m*3 16.7 C 0 km/h
309 30-06-2022 01:40:00 16.6 C 12.71 g/m*3 16.6 C 0 km/h
310 30-06-2022 01:45:00 16.6 C 12.71 g/m*3 16.6 C 0 km/h
311 30-06-2022 01:50:00 16.5 C 12.64 g/m*3 16.5 C 0 km/h
312 30-06-2022 01:55:00 16.4 C 12.7 g/m*3 16.4 C 0 km/h
313 30-06-2022 02:00:00 16.4 C 12.7 g/m*3 16.4 C 0 km/h
314 30-06-2022 02:05:00 16.4 C 12.7 g/m*3 16.4 C 0 km/h
315 30-06-2022 02:10:00 16.3 C 12.62 g/m*3 16.3 C 0 km/h
316 30-06-2022 02:15:00 16.3 C 12.62 g/m*3 16.3 C 0 km/h
317 30-06-2022 02:20:00 16.3 C 12.62 g/m*3 16.3 C 0 km/h
318 30-06-2022 02:25:00 16.2 C 12.55 g/m*3 16.2 C 0 km/h
319 30-06-2022 02:30:00 16.2 C 12.55 g/m*3 16.2 C 0 km/h
320 30-06-2022 02:35:00 16.2 C 12.69 g/m*3 16.2 C 0 km/h
321 30-06-2022 02:40:00 16.1 C 12.61 g/m*3 16.1 C 0 km/h
322 30-06-2022 02:45:00 16.1 C 12.61 g/m*3 16.1 C 0 km/h
323 30-06-2022 02:50:00 16.1 C 12.61 g/m*3 16.1 C 0 km/h
324 30-06-2022 02:55:00 16.1 C 12.61 g/m*3 16.1 C 0 km/h
325 30-06-2022 03:00:00 16.1 C 12.61 g/m*3 16.1 C 0 km/h
Sensor: Nr:Datum:Temp:Abs-Feuchte:Windchill:Wind:
Aussen-T/F 326 30-06-2022 03:05:00 16.2 C 12.82 g/m*3 16.2 C 0 km/h
327 30-06-2022 03:10:00 16.2 C 12.82 g/m*3 16.2 C 0 km/h
328 30-06-2022 03:15:00 16.2 C 12.82 g/m*3 16.2 C 0 km/h
329 30-06-2022 03:20:00 16.1 C 12.75 g/m*3 16.1 C 0 km/h
330 30-06-2022 03:25:00 16.1 C 12.61 g/m*3 16.1 C 0 km/h
331 30-06-2022 03:30:00 16 C 12.67 g/m*3 16 C 0 km/h
332 30-06-2022 03:35:00 16 C 12.67 g/m*3 16 C 0 km/h
333 30-06-2022 03:40:00 16 C 12.67 g/m*3 16 C 0 km/h
334 30-06-2022 03:45:00 16 C 12.67 g/m*3 16 C 0 km/h
335 30-06-2022 03:50:00 16 C 12.67 g/m*3 16 C 0 km/h
336 30-06-2022 03:55:00 15.9 C 12.59 g/m*3 15.9 C 0 km/h
337 30-06-2022 04:00:00 15.9 C 12.59 g/m*3 15.9 C 0 km/h
338 30-06-2022 04:05:00 15.9 C 12.59 g/m*3 15.9 C 0 km/h
339 30-06-2022 04:10:00 15.8 C 12.52 g/m*3 15.8 C 0 km/h
340 30-06-2022 04:15:00 15.8 C 12.52 g/m*3 15.8 C 0 km/h
341 30-06-2022 04:20:00 15.7 C 12.44 g/m*3 15.7 C 0 km/h
342 30-06-2022 04:25:00 15.7 C 12.44 g/m*3 15.7 C 0 km/h
343 30-06-2022 04:30:00 15.6 C 12.37 g/m*3 15.6 C 0 km/h
344 30-06-2022 04:35:00 15.6 C 12.37 g/m*3 15.6 C 0 km/h
345 30-06-2022 04:40:00 15.5 C 12.29 g/m*3 15.5 C 0 km/h
346 30-06-2022 04:45:00 15.4 C 12.22 g/m*3 15.4 C 0 km/h
347 30-06-2022 04:50:00 15.4 C 12.22 g/m*3 15.4 C 0 km/h
348 30-06-2022 04:55:00 15.3 C 12.14 g/m*3 15.3 C 0 km/h
349 30-06-2022 05:00:00 15.3 C 12.14 g/m*3 15.3 C 0 km/h
350 30-06-2022 05:05:00 15.3 C 12.14 g/m*3 15.3 C 0 km/h
Sensor: Nr:Datum:Temp:Abs-Feuchte:Windchill:Wind:
Aussen-T/F 351 30-06-2022 05:10:00 15.2 C 12.07 g/m*3 15.2 C 0 km/h
352 30-06-2022 05:15:00 15.2 C 12.07 g/m*3 15.2 C 0 km/h
353 30-06-2022 05:20:00 15.1 C 12 g/m*3 15.1 C 0 km/h
354 30-06-2022 05:25:00 15.1 C 12 g/m*3 15.1 C 0 km/h
355 30-06-2022 05:30:00 15.1 C 12 g/m*3 15.1 C 0 km/h
356 30-06-2022 05:35:00 15.1 C 12.13 g/m*3 15.1 C 0 km/h
357 30-06-2022 05:40:00 15.1 C 12.13 g/m*3 15.1 C 0 km/h
358 30-06-2022 05:45:00 15.1 C 12.13 g/m*3 15.1 C 0 km/h
359 30-06-2022 05:50:00 15.1 C 12.13 g/m*3 15.1 C 0 km/h
360 30-06-2022 05:55:00 15.1 C 12.13 g/m*3 15.1 C 0 km/h
361 30-06-2022 06:00:00 15.1 C 12.13 g/m*3 15.1 C 0 km/h
362 30-06-2022 06:05:00 15.1 C 12.13 g/m*3 15.1 C 0 km/h
363 30-06-2022 06:10:00 15.1 C 12.13 g/m*3 15.1 C 0 km/h
364 30-06-2022 06:15:00 15.1 C 12.13 g/m*3 15.1 C 0 km/h
365 30-06-2022 06:20:00 15 C 12.05 g/m*3 15 C 0 km/h
366 30-06-2022 06:25:00 15 C 12.05 g/m*3 15 C 0 km/h
367 30-06-2022 06:30:00 15.1 C 12.13 g/m*3 15.1 C 0 km/h
368 30-06-2022 06:35:00 15.2 C 12.33 g/m*3 15.2 C 0 km/h
369 30-06-2022 06:40:00 15.3 C 12.41 g/m*3 15.3 C 0 km/h
370 30-06-2022 06:45:00 15.4 C 12.48 g/m*3 15.4 C 0 km/h
371 30-06-2022 06:50:00 15.5 C 12.56 g/m*3 15.5 C 0 km/h
372 30-06-2022 06:55:00 15.5 C 12.56 g/m*3 15.5 C 0 km/h
373 30-06-2022 07:00:00 15.5 C 12.56 g/m*3 15.5 C 0 km/h
374 30-06-2022 07:05:00 15.5 C 12.56 g/m*3 15.5 C 0 km/h
375 30-06-2022 07:10:00 15.5 C 12.56 g/m*3 15.5 C 0 km/h
Sensor: Nr:Datum:Temp:Abs-Feuchte:Windchill:Wind:
Aussen-T/F 376 30-06-2022 07:15:00 15.5 C 12.56 g/m*3 15.5 C 0 km/h
377 30-06-2022 07:20:00 15.6 C 12.63 g/m*3 15.6 C 0 km/h
378 30-06-2022 07:25:00 15.6 C 12.63 g/m*3 15.6 C 0 km/h
379 30-06-2022 07:30:00 15.6 C 12.63 g/m*3 15.6 C 0 km/h
380 30-06-2022 07:35:00 15.7 C 12.71 g/m*3 15.7 C 0 km/h
381 30-06-2022 07:40:00 15.7 C 12.71 g/m*3 15.7 C 1.6 km/h
382 30-06-2022 07:45:00 15.9 C 12.87 g/m*3 15.9 C 0 km/h
383 30-06-2022 07:50:00 16.1 C 13.02 g/m*3 16.1 C 4.8 km/h
384 30-06-2022 07:55:00 16.2 C 13.24 g/m*3 16.2 C 1.6 km/h
385 30-06-2022 08:00:00 16.3 C 13.32 g/m*3 16.3 C 4.8 km/h
386 30-06-2022 08:05:00 16.4 C 13.4 g/m*3 16.4 C 0 km/h
387 30-06-2022 08:10:00 16.5 C 13.48 g/m*3 16.5 C 0 km/h
388 30-06-2022 08:15:00 16.6 C 13.56 g/m*3 16.6 C 0 km/h
389 30-06-2022 08:20:00 16.6 C 13.56 g/m*3 16.6 C 1.6 km/h
390 30-06-2022 08:25:00 16.7 C 13.5 g/m*3 16.7 C 0 km/h
391 30-06-2022 08:30:00 16.7 C 13.5 g/m*3 16.7 C 0 km/h
392 30-06-2022 08:35:00 16.8 C 13.58 g/m*3 16.8 C 0 km/h
393 30-06-2022 08:40:00 16.8 C 13.73 g/m*3 16.8 C 0 km/h
394 30-06-2022 08:45:00 16.9 C 13.81 g/m*3 16.9 C 0 km/h
395 30-06-2022 08:50:00 17 C 13.89 g/m*3 17 C 0 km/h
396 30-06-2022 08:55:00 17.1 C 13.83 g/m*3 17.1 C 0 km/h
397 30-06-2022 09:00:00 17.2 C 13.91 g/m*3 17.2 C 0 km/h
398 30-06-2022 09:05:00 17.4 C 14.23 g/m*3 17.4 C 0 km/h
399 30-06-2022 09:10:00 17.7 C 14.48 g/m*3 17.7 C 0 km/h
400 30-06-2022 09:15:00 17.9 C 14.66 g/m*3 17.9 C 0 km/h
Sensor: Nr:Datum:Temp:Abs-Feuchte:Windchill:Wind:
Aussen-T/F 401 30-06-2022 09:20:00 18.2 C 14.92 g/m*3 18.2 C 0 km/h
402 30-06-2022 09:25:00 18.4 C 15.1 g/m*3 18.4 C 0 km/h
403 30-06-2022 09:30:00 18.7 C 15.37 g/m*3 18.7 C 0 km/h
404 30-06-2022 09:35:00 18.9 C 15.39 g/m*3 18.9 C 0 km/h
405 30-06-2022 09:40:00 19.2 C 15.66 g/m*3 19.2 C 0 km/h
406 30-06-2022 09:45:00 19.4 C 15.68 g/m*3 19.4 C 0 km/h
407 30-06-2022 09:50:00 19.6 C 15.87 g/m*3 19.6 C 0 km/h
408 30-06-2022 09:55:00 19.8 C 16.06 g/m*3 19.8 C 0 km/h
409 30-06-2022 10:00:00 20 C 16.07 g/m*3 20 C 0 km/h
410 30-06-2022 10:05:00 20.2 C 16.26 g/m*3 20.2 C 0 km/h
411 30-06-2022 10:10:00 20.4 C 16.45 g/m*3 20.4 C 0 km/h
412 30-06-2022 10:15:00 20.6 C 16.47 g/m*3 20.6 C 0 km/h
413 30-06-2022 10:20:00 20.9 C 16.76 g/m*3 20.9 C 0 km/h
414 30-06-2022 10:25:00 21.3 C 16.96 g/m*3 21.3 C 0 km/h
415 30-06-2022 10:30:00 21.6 C 17.07 g/m*3 21.6 C 0 km/h
416 30-06-2022 10:35:00 21.8 C 17.27 g/m*3 21.8 C 0 km/h
417 30-06-2022 10:40:00 22.2 C 17.67 g/m*3 22.2 C 0 km/h
418 30-06-2022 10:45:00 22.4 C 17.68 g/m*3 22.4 C 0 km/h
419 30-06-2022 10:50:00 22.7 C 17.78 g/m*3 22.7 C 0 km/h
420 30-06-2022 10:55:00 23.1 C 17.98 g/m*3 23.1 C 0 km/h
421 30-06-2022 11:00:00 23.4 C 18.08 g/m*3 23.4 C 0 km/h
422 30-06-2022 11:05:00 23.7 C 17.75 g/m*3 23.7 C 0 km/h
423 30-06-2022 11:10:00 24.1 C 17.94 g/m*3 24.1 C 0 km/h
424 30-06-2022 11:15:00 24.5 C 18.35 g/m*3 24.5 C 0 km/h
425 30-06-2022 11:20:00 24.9 C 18.54 g/m*3 24.9 C 0 km/h
Sensor: Nr:Datum:Temp:Abs-Feuchte:Windchill:Wind:
Aussen-T/F 426 30-06-2022 11:25:00 25.3 C 18.73 g/m*3 25.3 C 0 km/h
427 30-06-2022 11:30:00 25.6 C 18.57 g/m*3 25.6 C 0 km/h
428 30-06-2022 11:35:00 25.7 C 18.43 g/m*3 25.7 C 0 km/h
429 30-06-2022 11:40:00 25.8 C 18.54 g/m*3 25.8 C 0 km/h
430 30-06-2022 11:45:00 26.1 C 18.36 g/m*3 26.1 C 0 km/h
431 30-06-2022 11:50:00 26.3 C 19.06 g/m*3 26.3 C 0 km/h
432 30-06-2022 11:55:00 26.3 C 18.81 g/m*3 26.3 C 0 km/h
433 30-06-2022 12:00:00 26.2 C 18.46 g/m*3 26.2 C 0 km/h
434 30-06-2022 12:05:00 26.2 C 18.46 g/m*3 26.2 C 0 km/h
435 30-06-2022 12:10:00 26.2 C 18.46 g/m*3 26.2 C 0 km/h
436 30-06-2022 12:15:00 26.3 C 18.07 g/m*3 26.3 C 0 km/h
437 30-06-2022 12:20:00 26.4 C 16.93 g/m*3 26.4 C 0 km/h
438 30-06-2022 12:25:00 26.8 C 17.31 g/m*3 26.8 C 0 km/h
439 30-06-2022 12:30:00 27.1 C 17.86 g/m*3 27.1 C 0 km/h
440 30-06-2022 12:35:00 27 C 17.5 g/m*3 27 C 0 km/h
441 30-06-2022 12:40:00 26.9 C 17.92 g/m*3 26.9 C 0 km/h
442 30-06-2022 12:45:00 26.8 C 17.31 g/m*3 26.8 C 0 km/h
443 30-06-2022 12:50:00 26.8 C 16.8 g/m*3 26.8 C 3.2 km/h
444 30-06-2022 12:55:00 27.2 C 14.83 g/m*3 27.2 C 4.8 km/h
445 30-06-2022 13:00:00 28 C 14.14 g/m*3 28 C 6.4 km/h
446 30-06-2022 13:05:00 28.7 C 14.69 g/m*3 28.7 C 8.1 km/h
447 30-06-2022 13:10:00 29.3 C 15.47 g/m*3 29.3 C 6.4 km/h
448 30-06-2022 13:15:00 29.6 C 16.91 g/m*3 29.6 C 3.2 km/h
449 30-06-2022 13:20:00 29.7 C 15.22 g/m*3 29.7 C 4.8 km/h
450 30-06-2022 13:25:00 29.9 C 14.78 g/m*3 29.9 C 1.6 km/h
Sensor: Nr:Datum:Temp:Abs-Feuchte:Windchill:Wind:
Aussen-T/F 451 30-06-2022 13:30:00 30.1 C 14.02 g/m*3 30.1 C 6.4 km/h
452 30-06-2022 13:35:00 30 C 16.38 g/m*3 30 C 4.8 km/h
453 30-06-2022 13:40:00 29.9 C 18.1 g/m*3 29.9 C 0 km/h
454 30-06-2022 13:45:00 29.6 C 14.84 g/m*3 29.6 C 0 km/h
455 30-06-2022 13:50:00 29.6 C 14.24 g/m*3 29.6 C 0 km/h
456 30-06-2022 13:55:00 29.8 C 14.4 g/m*3 29.8 C 1.6 km/h
457 30-06-2022 14:00:00 30.1 C 13.11 g/m*3 30.1 C 8.1 km/h
458 30-06-2022 14:05:00 30.1 C 13.42 g/m*3 30.1 C 11.3 km/h
459 30-06-2022 14:10:00 30.2 C 12.87 g/m*3 30.2 C 12.9 km/h
460 30-06-2022 14:15:00 30.2 C 12.87 g/m*3 30.2 C 3.2 km/h
461 30-06-2022 14:20:00 30.2 C 17.17 g/m*3 30.2 C 4.8 km/h
462 30-06-2022 14:25:00 30.2 C 16.55 g/m*3 30.2 C 8.1 km/h
463 30-06-2022 14:30:00 30.4 C 13.63 g/m*3 30.4 C 9.7 km/h
464 30-06-2022 14:35:00 30.7 C 14.17 g/m*3 30.7 C 9.7 km/h
465 30-06-2022 14:40:00 31.1 C 12.87 g/m*3 31.1 C 8.1 km/h
466 30-06-2022 14:45:00 31.3 C 13.33 g/m*3 31.3 C 6.4 km/h
467 30-06-2022 14:50:00 31.6 C 13.88 g/m*3 31.6 C 9.7 km/h
468 30-06-2022 14:55:00 31.9 C 12.76 g/m*3 31.9 C 8.1 km/h
469 30-06-2022 15:00:00 31.9 C 13.1 g/m*3 31.9 C 8.1 km/h
470 30-06-2022 15:05:00 31.9 C 12.76 g/m*3 31.9 C 11.3 km/h
471 30-06-2022 15:10:00 31.9 C 12.76 g/m*3 31.9 C 9.7 km/h
472 30-06-2022 15:15:00 31.9 C 12.76 g/m*3 31.9 C 8.1 km/h
473 30-06-2022 15:20:00 32.1 C 13.24 g/m*3 32.1 C 11.3 km/h
474 30-06-2022 15:25:00 31.9 C 12.76 g/m*3 31.9 C 11.3 km/h
475 30-06-2022 15:30:00 31.7 C 12.96 g/m*3 31.7 C 11.3 km/h
Sensor: Nr:Datum:Temp:Abs-Feuchte:Windchill:Wind:
Aussen-T/F 476 30-06-2022 15:35:00 31.8 C 12.69 g/m*3 31.8 C 9.7 km/h
477 30-06-2022 15:40:00 32 C 13.17 g/m*3 32 C 6.4 km/h
478 30-06-2022 15:45:00 32.1 C 12.9 g/m*3 32.1 C 8.1 km/h
479 30-06-2022 15:50:00 31.9 C 13.1 g/m*3 31.9 C 6.4 km/h
480 30-06-2022 15:55:00 31.9 C 13.1 g/m*3 31.9 C 9.7 km/h
481 30-06-2022 16:00:00 31.8 C 16.03 g/m*3 31.8 C 4.8 km/h
482 30-06-2022 16:05:00 31.5 C 14.13 g/m*3 31.5 C 4.8 km/h
483 30-06-2022 16:10:00 31.5 C 14.13 g/m*3 31.5 C 1.6 km/h
484 30-06-2022 16:15:00 31.7 C 13.95 g/m*3 31.7 C 6.4 km/h
485 30-06-2022 16:20:00 31.9 C 12.42 g/m*3 31.9 C 12.9 km/h
486 30-06-2022 16:25:00 32.1 C 13.24 g/m*3 32.1 C 4.8 km/h
487 30-06-2022 16:30:00 31.9 C 14.78 g/m*3 31.9 C 6.4 km/h
488 30-06-2022 16:35:00 31.8 C 13.36 g/m*3 31.8 C 6.4 km/h
489 30-06-2022 16:40:00 31.9 C 15.78 g/m*3 31.9 C 4.8 km/h
490 30-06-2022 16:45:00 32 C 14.52 g/m*3 32 C 0 km/h
491 30-06-2022 16:50:00 31.9 C 17.13 g/m*3 31.9 C 1.6 km/h
492 30-06-2022 16:55:00 31.5 C 17.09 g/m*3 31.5 C 1.6 km/h
493 30-06-2022 17:00:00 31.4 C 14.39 g/m*3 31.4 C 4.8 km/h
494 30-06-2022 17:05:00 31.8 C 16.37 g/m*3 31.8 C 4.8 km/h
495 30-06-2022 17:10:00 31.8 C 17.37 g/m*3 31.8 C 4.8 km/h
496 30-06-2022 17:15:00 31.4 C 16.35 g/m*3 31.4 C 1.6 km/h
497 30-06-2022 17:20:00 31.5 C 13.81 g/m*3 31.5 C 4.8 km/h
498 30-06-2022 17:25:00 31.9 C 13.1 g/m*3 31.9 C 4.8 km/h
499 30-06-2022 17:30:00 32.3 C 13.38 g/m*3 32.3 C 8.1 km/h
500 30-06-2022 17:35:00 32.5 C 12.48 g/m*3 32.5 C 12.9 km/h
Sensor: Nr:Datum:Temp:Abs-Feuchte:Windchill:Wind:
Aussen-T/F 501 30-06-2022 17:40:00 32.4 C 12.76 g/m*3 32.4 C 12.9 km/h
502 30-06-2022 17:45:00 32.4 C 12.41 g/m*3 32.4 C 9.7 km/h
503 30-06-2022 17:50:00 32.6 C 12.55 g/m*3 32.6 C 8.1 km/h
504 30-06-2022 17:55:00 32.8 C 12.68 g/m*3 32.8 C 6.4 km/h
505 30-06-2022 18:00:00 33.1 C 12.17 g/m*3 33.1 C 8.1 km/h
506 30-06-2022 18:05:00 33.2 C 12.59 g/m*3 33.2 C 11.3 km/h
507 30-06-2022 18:10:00 33.4 C 12 g/m*3 33.4 C 4.8 km/h
508 30-06-2022 18:15:00 33.4 C 12.36 g/m*3 33.4 C 4.8 km/h
509 30-06-2022 18:20:00 33.4 C 12 g/m*3 33.4 C 12.9 km/h
510 30-06-2022 18:25:00 33 C 12.1 g/m*3 33 C 9.7 km/h
511 30-06-2022 18:30:00 32.9 C 12.75 g/m*3 32.9 C 4.8 km/h
512 30-06-2022 18:35:00 32.8 C 12.68 g/m*3 32.8 C 8.1 km/h
513 30-06-2022 18:40:00 32.7 C 12.26 g/m*3 32.7 C 3.2 km/h
514 30-06-2022 18:45:00 32.6 C 12.2 g/m*3 32.6 C 6.4 km/h
515 30-06-2022 18:50:00 32.3 C 13.03 g/m*3 32.3 C 4.8 km/h
516 30-06-2022 18:55:00 31.9 C 11.75 g/m*3 31.9 C 6.4 km/h
517 30-06-2022 19:00:00 31.6 C 14.54 g/m*3 31.6 C 6.4 km/h
518 30-06-2022 19:05:00 31.3 C 15.61 g/m*3 31.3 C 6.4 km/h
519 30-06-2022 19:10:00 30.9 C 15.6 g/m*3 30.9 C 1.6 km/h
520 30-06-2022 19:15:00 30.6 C 16.29 g/m*3 30.6 C 1.6 km/h
521 30-06-2022 19:20:00 30.1 C 15.24 g/m*3 30.1 C 1.6 km/h
522 30-06-2022 19:25:00 29.6 C 15.73 g/m*3 29.6 C 3.2 km/h
523 30-06-2022 19:30:00 29 C 15.8 g/m*3 29 C 3.2 km/h
524 30-06-2022 19:35:00 28.4 C 14.73 g/m*3 28.4 C 3.2 km/h
525 30-06-2022 19:40:00 27.8 C 14.79 g/m*3 27.8 C 4.8 km/h
Sensor: Nr:Datum:Temp:Abs-Feuchte:Windchill:Wind:
Aussen-T/F 526 30-06-2022 19:45:00 27 C 13.64 g/m*3 27 C 16.1 km/h
527 30-06-2022 19:50:00 26.4 C 14.19 g/m*3 26.4 C 16.1 km/h
528 30-06-2022 19:55:00 26.2 C 14.77 g/m*3 26.2 C 4.8 km/h
529 30-06-2022 20:00:00 26.1 C 14.44 g/m*3 26.1 C 4.8 km/h
530 30-06-2022 20:05:00 25.9 C 14.77 g/m*3 25.9 C 17.7 km/h
531 30-06-2022 20:10:00 25.7 C 15.32 g/m*3 25.7 C 24.1 km/h
532 30-06-2022 20:15:00 25.1 C 15.28 g/m*3 25.1 C 27.4 km/h
533 30-06-2022 20:20:00 24.2 C 15.4 g/m*3 24.2 C 27.4 km/h
534 30-06-2022 20:25:00 23 C 14.59 g/m*3 23 C 24.1 km/h
535 30-06-2022 20:30:00 22 C 14.17 g/m*3 22 C 17.7 km/h
536 30-06-2022 20:35:00 21.4 C 14.44 g/m*3 21.4 C 16.1 km/h
537 30-06-2022 20:40:00 20.9 C 14.21 g/m*3 20.9 C 8.1 km/h
538 30-06-2022 20:45:00 20.6 C 14.32 g/m*3 20.6 C 11.3 km/h
539 30-06-2022 20:50:00 20.2 C 14.16 g/m*3 20.2 C 11.3 km/h
540 30-06-2022 20:55:00 19.9 C 13.92 g/m*3 19.9 C 12.9 km/h
541 30-06-2022 21:00:00 19.6 C 13.67 g/m*3 19.6 C 16.1 km/h
542 30-06-2022 21:05:00 19.3 C 13.44 g/m*3 19.3 C 11.3 km/h
543 30-06-2022 21:10:00 19.1 C 12.95 g/m*3 19.1 C 12.9 km/h
544 30-06-2022 21:15:00 19 C 12.71 g/m*3 19 C 16.1 km/h
545 30-06-2022 21:20:00 18.9 C 12.64 g/m*3 18.9 C 9.7 km/h
546 30-06-2022 21:25:00 18.9 C 12.8 g/m*3 18.9 C 8.1 km/h
547 30-06-2022 21:30:00 18.9 C 12.8 g/m*3 18.9 C 11.3 km/h
548 30-06-2022 21:35:00 18.8 C 12.72 g/m*3 18.8 C 16.1 km/h
549 30-06-2022 21:40:00 18.6 C 12.26 g/m*3 18.6 C 14.5 km/h
550 30-06-2022 21:45:00 18.4 C 12.27 g/m*3 18.4 C 12.9 km/h
Sensor: Nr:Datum:Temp:Abs-Feuchte:Windchill:Wind:
Aussen-T/F 551 30-06-2022 21:50:00 18.2 C 12.28 g/m*3 18.2 C 9.7 km/h
552 30-06-2022 21:55:00 18.1 C 12.36 g/m*3 18.1 C 11.3 km/h
553 30-06-2022 22:00:00 18 C 12.29 g/m*3 18 C 8.1 km/h
554 30-06-2022 22:05:00 17.9 C 12.21 g/m*3 17.9 C 9.7 km/h
555 30-06-2022 22:10:00 17.8 C 12.14 g/m*3 17.8 C 6.4 km/h
556 30-06-2022 22:15:00 17.8 C 12.14 g/m*3 17.8 C 8.1 km/h
557 30-06-2022 22:20:00 17.7 C 12.07 g/m*3 17.7 C 8.1 km/h
558 30-06-2022 22:25:00 17.7 C 12.22 g/m*3 17.7 C 4.8 km/h
559 30-06-2022 22:30:00 17.7 C 12.07 g/m*3 17.7 C 4.8 km/h
560 30-06-2022 22:35:00 17.6 C 12.15 g/m*3 17.6 C 6.4 km/h
561 30-06-2022 22:40:00 17.5 C 12.23 g/m*3 17.5 C 6.4 km/h
562 30-06-2022 22:45:00 17.3 C 12.23 g/m*3 17.3 C 8.1 km/h
563 30-06-2022 22:50:00 17.2 C 12.15 g/m*3 17.2 C 8.1 km/h
564 30-06-2022 22:55:00 17.1 C 12.23 g/m*3 17.1 C 3.2 km/h
565 30-06-2022 23:00:00 16.9 C 12.08 g/m*3 16.9 C 4.8 km/h
566 30-06-2022 23:05:00 16.9 C 12.23 g/m*3 16.9 C 3.2 km/h
567 30-06-2022 23:10:00 16.8 C 12.3 g/m*3 16.8 C 1.6 km/h
568 30-06-2022 23:15:00 16.7 C 12.36 g/m*3 16.7 C 3.2 km/h
569 30-06-2022 23:20:00 16.6 C 12.29 g/m*3 16.6 C 3.2 km/h
570 30-06-2022 23:25:00 16.4 C 12.14 g/m*3 16.4 C 3.2 km/h
571 30-06-2022 23:30:00 16.3 C 12.21 g/m*3 16.3 C 0 km/h
572 30-06-2022 23:35:00 16.2 C 12.14 g/m*3 16.2 C 0 km/h
573 30-06-2022 23:40:00 16.1 C 12.2 g/m*3 16.1 C 0 km/h
574 30-06-2022 23:45:00 15.9 C 12.05 g/m*3 15.9 C 6.4 km/h
575 30-06-2022 23:50:00 15.8 C 12.11 g/m*3 15.8 C 6.4 km/h
Sensor: Nr:Datum:Temp:Abs-Feuchte:Windchill:Wind:
Aussen-T/F 576 30-06-2022 23:55:00 15.8 C 12.11 g/m*3 15.8 C 1.6 km/h

Legende:
   Min
   Max


Maximal/Minimal-Werte vom 29.06.2022 - 30.06.2022

Sensor Min Max Avg
Temp
(Aussen-T/F)
15 °C
30-06-2022  06:20:00
33.4 °C
30-06-2022  18:10:00
21.33 °C
Abs-Feuchte
(Aussen-T/F)
10.9 g/m*3
29-06-2022  02:25:00
19.06 g/m*3
30-06-2022  11:50:00
13.42 g/m*3
Windchill
(Aussen-T/F)
15 C
30-06-2022  06:20:00
33.4 C
30-06-2022  18:10:00
21.29 C

Die Daten stammen von einer Davis Vantage Pro 2 Wetter-Station und werden unter Linux mit der Software wview2wettercgi und aufbereitet. Alle Angaben erfolgen ohne Gewähr für ihre Vollständigkeit oder Richtigkeit.
Kontakt: Rainer Krienke krienke@uni-koblenz.de . Meine Webseiten an der Uni Koblenz oder privat.
Version: $Revision: 0.78 $